Weather reports worldwide

Advertisment
Landsort, Sweden (2582): temperature & dewpoint: 22.05.2020 22:00:00 - 28.05.2020 22:00:00 (CEST)Landsort, Sweden (2582): wind speed & gusts: 22.05.2020 22:00:00 - 28.05.2020 22:00:00 (CEST)Landsort, Sweden (2582): wind direction: 22.05.2020 22:00:00 - 28.05.2020 22:00:00 (CEST)Landsort, Sweden (2582): reduced air pressure: 22.05.2020 22:00:00 - 28.05.2020 22:00:00 (CEST)Landsort, Sweden (2582): visibility: 22.05.2020 22:00:00 - 28.05.2020 22:00:00 (CEST)Landsort, Sweden (2582): precipitation: 22.05.2020 22:00:00 - 28.05.2020 22:00:00 (CEST)
Date & Time tt [°C] td [°C] ff [km/h] ff [kn] fx [km/h] fx [kn] dd ppp [hPa] vv [km] rr [mm]
28.05.2020 22:00:00 10,2 8,1 16 8 21 11 SSE 1030,2 50 0,0
28.05.2020 21:00:00 10,6 8,7 17 9 20 11 SE 1030,0 50 0,0
28.05.2020 20:00:00 11,4 9,5 10 5 11 6 SE 1029,8 50 0,0
28.05.2020 19:00:00 11,9 8,7 8 4 12 7 SSE 1029,7 43 0,0
28.05.2020 18:00:00 13,1 7,5 5 3 14 7 SSW 1029,7 48 0,0
28.05.2020 17:00:00 14,4 4,7 5 3 14 8 SSW 1029,7 50 0,0
28.05.2020 16:00:00 14,8 5,3 9 5 29 16 SW 1029,7 42 0,0
28.05.2020 15:00:00 17,0 - 17 9 27 15 NNW 1029,6 50 0,0
28.05.2020 14:00:00 16,1 - 16 9 29 16 NNW 1029,6 45 0,0
28.05.2020 13:00:00 15,7 1,8 16 9 29 15 NNW 1029,6 50 0,0
28.05.2020 12:00:00 14,6 1,5 18 10 24 13 NNW 1029,8 39 0,0
28.05.2020 11:00:00 13,7 4,3 19 10 29 16 NW 1029,8 44 0,0
28.05.2020 10:00:00 13,2 4,6 18 10 23 13 NNW 1029,6 43 0,0
28.05.2020 09:00:00 13,0 5,7 10 6 21 11 N 1029,5 31 0,0
28.05.2020 08:00:00 12,7 4,6 15 8 26 14 NNE 1029,1 40 0,0
28.05.2020 07:00:00 11,4 4,6 21 12 32 17 NNE 1028,9 48 0,0
28.05.2020 06:00:00 10,8 5,1 22 12 32 18 NNE 1028,4 50 0,0
28.05.2020 05:00:00 9,8 6,9 14 7 26 14 N 1028,0 50 0,0
28.05.2020 04:00:00 9,6 7,7 15 8 20 11 NNW 1027,6 50 0,0
28.05.2020 03:00:00 9,7 8,1 12 6 18 10 NW 1027,2 50 0,0
28.05.2020 02:00:00 9,8 8,2 9 5 15 8 WNW 1027,1 50 0,0
28.05.2020 01:00:00 9,9 7,8 8 4 13 7 NNW 1027,0 50 0,0
28.05.2020 00:00:00 10,4 7,8 9 5 16 8 NNW 1026,9 50 0,0
27.05.2020 23:00:00 10,6 8,2 9 5 18 10 NE 1026,6 50 0,0
27.05.2020 22:00:00 11,1 7,6 13 7 25 14 NNE 1026,0 50 0,0
27.05.2020 21:00:00 10,7 8,5 17 9 32 18 NNE 1025,4 50 0,0
27.05.2020 20:00:00 10,8 8,2 30 16 40 21 NE 1024,7 50 0,0
27.05.2020 19:00:00 11,7 8,4 26 14 36 19 ENE 1024,1 50 0,0
27.05.2020 18:00:00 12,7 9,2 21 11 35 19 W 1023,2 40 0,0
27.05.2020 17:00:00 13,3 9,2 28 15 34 18 WSW 1023,2 34 0,0
27.05.2020 16:00:00 13,6 9,4 26 14 34 18 WSW 1023,6 31 0,0
27.05.2020 15:00:00 13,4 9,4 24 13 30 16 SW 1024,0 37 0,0
27.05.2020 14:00:00 13,7 9,5 24 13 32 18 SW 1024,4 31 0,0
27.05.2020 13:00:00 12,7 9,2 22 12 30 16 SW 1024,8 31 0,0
27.05.2020 12:00:00 12,5 9,0 19 10 29 15 SW 1025,2 35 0,0
27.05.2020 11:00:00 12,7 9,0 21 11 27 15 SW 1025,7 34 0,0
27.05.2020 10:00:00 12,2 9,0 17 9 28 15 SW 1026,0 31 0,0
27.05.2020 09:00:00 12,0 8,8 18 10 24 13 SW 1026,4 30 0,0
27.05.2020 08:00:00 11,0 8,6 16 8 26 14 WSW 1026,8 32 0,0
27.05.2020 07:00:00 10,7 8,3 19 10 26 14 WSW 1027,2 32 0,0
27.05.2020 06:00:00 10,8 8,2 19 10 23 13 WSW 1027,6 47 0,0
27.05.2020 05:00:00 11,3 7,6 16 9 26 14 W 1028,0 44 0,0
27.05.2020 04:00:00 11,3 8,2 21 11 24 13 W 1028,3 50 0,0
27.05.2020 03:00:00 10,5 8,6 13 7 17 9 W 1028,9 49 0,0
27.05.2020 02:00:00 10,4 9,0 13 7 17 9 W 1029,1 44 0,0
27.05.2020 01:00:00 10,6 8,7 12 6 21 11 WSW 1029,4 47 0,0
27.05.2020 00:00:00 11,4 8,4 16 9 36 20 WSW 1029,6 50 0,0
26.05.2020 23:00:00 12,2 8,3 21 11 29 16 SSW 1029,7 50 0,0
26.05.2020 22:00:00 12,2 8,3 16 9 30 16 SSW 1030,3 50 0,0
26.05.2020 21:00:00 12,4 8,1 17 9 29 16 SSW 1030,4 50 0,0
26.05.2020 20:00:00 12,6 8,1 19 10 26 14 SW 1030,7 50 0,0
26.05.2020 19:00:00 12,7 8,4 15 8 23 12 SSW 1031,1 39 0,0
26.05.2020 18:00:00 12,3 8,6 15 8 22 12 SSW 1031,7 38 0,0
26.05.2020 17:00:00 12,2 8,9 12 7 21 11 SSW 1032,1 41 0,0
26.05.2020 16:00:00 12,2 8,9 14 8 21 11 SSW 1032,5 38 0,0
26.05.2020 15:00:00 12,2 8,9 13 7 21 12 SSW 1033,1 44 0,0
26.05.2020 14:00:00 12,3 9,7 12 6 18 10 S 1033,2 36 0,0
26.05.2020 13:00:00 12,2 9,0 11 6 16 9 SSW 1033,5 32 0,0
26.05.2020 12:00:00 12,2 9,0 11 6 16 8 SSW 1033,9 37 0,0
26.05.2020 11:00:00 11,9 9,1 10 5 14 8 S 1034,1 46 0,0
26.05.2020 10:00:00 12,4 8,9 5 3 12 6 SSW 1034,0 45 0,0
26.05.2020 09:00:00 11,2 8,8 8 4 12 6 SW 1033,8 47 0,0
26.05.2020 08:00:00 10,1 8,5 8 4 10 5 S 1033,4 37 0,0
26.05.2020 07:00:00 10,0 8,4 4 2 10 5 WSW 1033,3 48 0,0
26.05.2020 06:00:00 9,4 8,3 8 4 9 5 W 1033,0 46 0,0
26.05.2020 05:00:00 8,9 7,8 8 4 9 5 W 1032,8 50 0,0
26.05.2020 04:00:00 8,8 7,9 8 4 11 6 W 1032,5 50 0,0
26.05.2020 03:00:00 8,7 7,9 8 4 9 5 W 1032,5 45 0,0
26.05.2020 02:00:00 8,6 7,8 7 4 10 5 W 1032,6 26 0,0
26.05.2020 01:00:00 8,6 7,4 9 5 10 5 WSW 1032,5 49 0,0
26.05.2020 00:00:00 8,6 7,2 5 3 7 4 SW 1032,3 50 0,0
25.05.2020 23:00:00 8,4 7,8 5 3 10 6 WSW 1031,9 50 0,0
25.05.2020 22:00:00 7,4 7,0 5 3 8 5 WSW 1031,5 0,8 0,0
25.05.2020 21:00:00 7,9 6,8 6 4 9 5 W 1031,2 2,0 0,0
25.05.2020 20:00:00 9,2 7,3 0 0 11 6 N 1030,5 50 0,0
25.05.2020 19:00:00 9,0 7,3 3 2 7 4 WSW 1029,9 29 0,0
25.05.2020 18:00:00 9,9 7,8 0 0 7 4 N 1029,7 36 0,0
25.05.2020 17:00:00 8,4 7,0 3 1 7 4 ESE 1029,4 6 0,0
25.05.2020 16:00:00 - - - - 9 5 - - - -
25.05.2020 15:00:00 7,9 6,8 5 3 13 7 SSE 1028,4 0,9 0,0
25.05.2020 14:00:00 8,2 7,0 7 4 16 9 ESE 1027,9 0,9 0,0
25.05.2020 13:00:00 8,8 7,6 10 5 17 9 E 1027,2 1,0 0,0
25.05.2020 12:00:00 8,9 7,5 12 6 15 8 E 1026,7 2,0 0,0
25.05.2020 11:00:00 9,2 7,8 16 8 21 11 E 1025,9 35 0,0
25.05.2020 10:00:00 8,2 7,3 13 7 24 13 ENE 1025,0 36 0,0
25.05.2020 09:00:00 7,6 7,2 21 11 31 17 NE 1024,1 25 0,0
25.05.2020 08:00:00 7,7 7,4 24 13 29 16 ENE 1023,0 5 0,0
25.05.2020 07:00:00 8,0 7,7 24 13 30 16 ENE 1022,0 15 0,0
25.05.2020 06:00:00 8,2 7,9 23 12 28 15 ENE 1021,1 1,0 0,0
25.05.2020 05:00:00 8,1 7,8 26 14 29 16 ENE 1020,1 1,8 0,0
25.05.2020 04:00:00 8,1 7,8 20 11 23 13 ENE 1019,0 0,6 0,0
25.05.2020 03:00:00 8,2 7,9 18 10 22 12 ENE 1018,2 0,5 0,0
25.05.2020 02:00:00 9,0 8,5 7 4 12 6 NE 1017,7 5 0,0
25.05.2020 01:00:00 8,8 8,2 4 2 8 4 ENE 1017,2 9 0,0
25.05.2020 00:00:00 8,8 8,2 3 1 10 6 E 1016,9 10 0,0
24.05.2020 23:00:00 8,9 8,1 11 6 16 8 SE 1016,4 15 0,0
24.05.2020 22:00:00 9,1 8,0 12 7 16 9 SE 1015,9 14 0,0
24.05.2020 21:00:00 9,4 8,0 15 8 17 9 SE 1015,3 17 0,0
24.05.2020 20:00:00 9,8 8,2 15 8 18 10 SSE 1015,1 17 0,0
24.05.2020 19:00:00 9,6 8,2 14 7 16 9 SE 1014,8 13 0,0
24.05.2020 18:00:00 10,4 8,2 9 5 16 9 SSE 1014,8 17 0,0
24.05.2020 17:00:00 10,3 8,1 12 6 23 13 S 1014,6 17 0,0
24.05.2020 16:00:00 11,0 8,2 19 10 23 12 S 1014,4 16 0,0
24.05.2020 15:00:00 10,7 7,9 19 11 23 12 SSE 1014,3 21 0,0
24.05.2020 14:00:00 10,9 8,3 18 10 23 12 SSE 1014,3 22 0,0
24.05.2020 13:00:00 11,0 8,2 17 9 21 12 S 1014,3 30 0,0
24.05.2020 12:00:00 10,6 8,4 16 9 20 11 S 1014,4 27 0,0
24.05.2020 11:00:00 10,0 7,9 14 7 19 11 S 1014,3 30 0,0
24.05.2020 10:00:00 9,7 7,6 10 6 17 9 S 1014,2 34 0,0
24.05.2020 09:00:00 9,8 8,1 9 5 14 8 SSW 1014,2 35 0,0
24.05.2020 08:00:00 9,2 8,0 11 6 14 8 SW 1014,3 35 0,0
24.05.2020 07:00:00 9,0 7,9 8 4 14 7 SW 1014,1 33 0,0
24.05.2020 06:00:00 8,8 8,0 10 5 15 8 WSW 1013,9 36 0,0
24.05.2020 05:00:00 8,6 8,0 13 7 18 10 SW 1013,8 35 0,0
24.05.2020 04:00:00 8,5 8,1 11 6 21 11 SW 1013,6 25 0,0
24.05.2020 03:00:00 8,7 8,3 14 8 21 11 WSW 1013,7 19 0,0
24.05.2020 02:00:00 8,5 8,1 9 5 18 10 SW 1013,9 13 0,0
24.05.2020 01:00:00 8,5 8,2 11 6 18 10 SSW 1014,0 8 0,0
24.05.2020 00:00:00 8,3 7,9 12 6 16 8 S 1014,1 7 0,0
23.05.2020 23:00:00 - - - - - - - - - -
23.05.2020 22:00:00 8,4 8,0 12 7 21 12 SW 1014,4 6 0,0
23.05.2020 21:00:00 8,3 7,9 19 10 32 17 SSW 1013,9 4,0 0,0
23.05.2020 20:00:00 8,2 7,6 23 12 38 21 SSW 1013,8 12 0,0
23.05.2020 19:00:00 8,4 7,5 27 14 39 21 S 1013,9 18 0,0
23.05.2020 18:00:00 8,7 6,7 32 17 44 24 SSE 1014,2 34 0,0
23.05.2020 17:00:00 8,3 6,4 31 17 36 20 SE 1015,3 42 0,8
23.05.2020 16:00:00 8,5 5,8 28 15 41 22 SSE 1016,4 20 0,7
23.05.2020 15:00:00 8,7 5,1 35 19 45 24 SSE 1016,6 18 0,8
23.05.2020 14:00:00 9,0 4,0 33 18 47 25 S 1017,5 20 0,3
23.05.2020 13:00:00 9,8 4,8 23 12 34 18 S 1018,1 40 0,0
23.05.2020 12:00:00 9,6 5,4 23 12 29 16 S 1018,4 50 0,0
23.05.2020 11:00:00 9,5 5,1 24 13 34 18 S 1018,5 48 0,0
23.05.2020 10:00:00 9,5 4,9 25 13 34 19 S 1019,0 38 0,0
23.05.2020 09:00:00 9,6 4,4 29 16 39 21 S 1019,2 50 0,0
23.05.2020 08:00:00 9,5 3,9 31 17 40 22 S 1019,2 50 0,0
23.05.2020 07:00:00 9,5 4,7 29 16 39 21 S 1019,7 49 0,0
23.05.2020 06:00:00 9,3 5,7 29 16 35 19 S 1020,1 50 0,0
23.05.2020 05:00:00 9,2 5,9 29 16 34 18 S 1020,3 50 0,0
23.05.2020 04:00:00 9,3 6,0 26 14 32 18 S 1020,7 50 0,0
23.05.2020 03:00:00 9,5 5,9 26 14 33 18 S 1020,9 50 0,0
23.05.2020 02:00:00 9,6 5,6 27 15 32 18 S 1021,4 50 0,0
23.05.2020 01:00:00 9,6 5,8 25 13 32 18 SSE 1021,5 50 0,0
23.05.2020 00:00:00 10,0 5,6 25 14 32 17 S 1022,1 50 0,0
22.05.2020 23:00:00 9,5 6,6 20 11 23 13 SSE 1022,4 50 0,0
22.05.2020 22:00:00 9,3 6,6 15 8 20 11 SSE 1022,8 50 0,0

tt = temperature
td = dewpoint
ff = wind speed
fx = gusts
dd = wind direction
ppp = reduced air pressure
vv = visibility
rr = precipitation

Next stations